Regional Weather Roundup
Issued by NWS

Home | Current Version | Previous Version | Text Only | Print | Product List | Glossary Off
Versions: 1 2 3 4 5 6 7 8 9 10 11 12 13 14 15 16 17 18 19 20 21 22 23 24 25 26 27 28 29 30 31 32 33 34 35 36 37 38 39 40 41 42 43 44 45 46 47 48 49 50

000
ASUS45 KBOU 291807
RWRCO

WEATHER ROUNDUP FOR COLORADO
NATIONAL WEATHER SERVICE DENVER/BOULDER CO
1200 PM MDT FRI AUG 29 2014

NOTE: "FAIR" INDICATES FEW OR NO CLOUDS BELOW 12000 FEET WITH NO
SIGNIFICANT WEATHER AND/OR OBSTRUCTIONS TO VISIBILITY.

COZ001>005-013-030-031-291900-
...NORTHWEST COLORADO...

CITY           SKY/WX    TMP DP  RH WIND       PRES   REMARKS
CRAIG          SUNNY     72  49  44 VRB3      30.24F
HAYDEN         SUNNY     66  45  45 W6        30.26F
MEEKER         SUNNY     71  47  42 SW3       30.25F
MOUNT WERNER   NOT AVBL
STEAMBOAT SPGS SUNNY     64  47  53 SW3       30.28S
WALDEN         SUNNY     63  43  48 SW7       30.32F
$$

COZ006>008-011-291900-
...WEST CENTRAL VALLEYS...

CITY           SKY/WX    TMP DP  RH WIND       PRES   REMARKS
GRAND JUNCTION SUNNY     74  50  42 VRB3      30.17F
MONTROSE       SUNNY     72  47  40 VRB3      30.24F
EAGLE          MOSUNNY   66  46  48 SW3       30.29F
RIFLE          SUNNY     70  47  43 CALM      30.21F
DELTA          SUNNY     74  48  39 CALM      30.20F
NUCLA          NOT AVBL
$$

COZ017>023-064>068-291900-
...SOUTHWEST COLORADO...

CITY           SKY/WX    TMP DP  RH WIND       PRES   REMARKS
DURANGO        SUNNY     72  30  21 CALM      30.24F
CORTEZ         SUNNY     76  40  27 VRB6      30.21F
PAGOSA SPRINGS SUNNY     69  28  21 W5        30.30F
TELLURIDE      MOSUNNY   61  36  39 CALM      30.40F
WOLF CREEK PAS SUNNY     50  28  43 NW5       30.57S
$$

COZ009-010-012-014-032>034-037-058>063-291900-
...CENTRAL COLORADO...

CITY           SKY/WX    TMP DP  RH WIND       PRES   REMARKS
ASPEN          MOSUNNY   69  42  37 VRB5      30.32F
BUENA VISTA    SUNNY     71  29  20 W13G23    30.30S
COPPER MTN     PTSUNNY   52  37  58 W18G24    30.58R
BERTHOUD PASS  FAIR      43  41  93 N5G21     30.61R
COTTONWOOD PAS MOSUNNY   68  27  21 CALM      30.43F
GUNNISON       SUNNY     63  43  48 SW9       30.35F
KREMMLING      SUNNY     61  45  55 CALM      30.32F
LEADVILLE      PTSUNNY   55  32  41 N10       30.43S
MONARCH PASS   MOSUNNY   46  34  61 W9        30.67S
SALIDA         SUNNY     71  31  23 N6        30.35F
SUNLIGHT       SUNNY     54  39  58 NW3       30.54S
WILKERSON PASS NOT AVBL
$$

COZ069>075-291900-
...SAN LUIS VALLEY/SANGRE DE CRISTO MOUNTAINS...

CITY           SKY/WX    TMP DP  RH WIND       PRES   REMARKS
ALAMOSA        SUNNY     66  38  35 NW3       30.31F
LA VETA PASS   NOT AVBL
SAGUACHE       NOT AVBL
$$

COZ035-036-038>040-291900-
...NORTHERN COLORADO FRONT RANGE...

CITY           SKY/WX    TMP DP  RH WIND       PRES   REMARKS
DENVER INTL AP MOSUNNY   77  48  35 N15G22    30.12S
DMNS CITY PARK   N/A     80  44  28 E8G15     30.10F
AURORA         MOSUNNY   78  44  29 N12       30.14S
FRONT RANGE AP MOSUNNY   77  46  33 N15       30.12F
ERIE MUNI ARPT MOSUNNY   79  43  28 NE12G17   30.10S
BOULDER MUN AP MOSUNNY   77  46  33 N8        30.11R
CENTENNIAL     MOSUNNY   77  42  28 NE5       30.14F
BROOMFIELD     PTSUNNY   79  45  29 NE14      30.13S
FORT COLLINS   MOSUNNY   79  48  34 N15       30.10S
LONGMONT       PTSUNNY   77  48  36 NE6       30.11S
$$

COZ041-046-047-076>085-087-088-291900-
...PIKES PEAK/PALMER DIVIDE AND SOUTHERN FOOTHILLS...

CITY           SKY/WX    TMP DP  RH WIND       PRES   REMARKS
COLO. SPRINGS  MOSUNNY   78  36  21 N8        30.17F
A. F. ACADEMY  MOSUNNY   75  35  23 N13       30.18F
ELLICOTT       SUNNY     77  37  23 N8        30.16F
FALCON         SUNNY     74  37  26 N13G20    30.23S
FORT CARSON    SUNNY     78  41  26 VRB7      30.15F
LIMON          SUNNY     77  44  30 N12       30.11F
MONUMENT HILL  MOSUNNY   70  41  35 NW8       30.23S
TRINIDAD       SUNNY     80  36  20 N8        30.16F
$$

COZ042>045-048>051-090-091-291900-
...NORTHEAST COLORADO...

CITY           SKY/WX    TMP DP  RH WIND       PRES   REMARKS
GREELEY ARPT   SUNNY     79  46  31 NE13      30.08F
AKRON          SUNNY     76  51  41 W10G17    30.06F
BURLINGTON     SUNNY     82  44  26 N14G21    30.01F
WRAY             N/A     83  50  31 N7G16     29.98F
STERLING       SUNNY     82  54  36 N3        30.01F
HOLYOKE        SUNNY     82  50  32 NW10G17   29.99S
FORT MORGAN    SUNNY     80  46  31 N7        30.06S
$$

COZ086-089-092>099-291900-
...SOUTHEAST COLORADO...

CITY           SKY/WX    TMP DP  RH WIND       PRES   REMARKS
PUEBLO         SUNNY     83  35  18 VRB6      30.07F
LA JUNTA       SUNNY     82  46  28 NW7       30.04F
LAMAR          SUNNY     82  48  30 W10       29.99F
SPRINGFIELD      N/A     81  44  27 NW9G23    30.04F
$$


USA.gov is the U.S. government's official web portal to all federal, state and local government web resources and services.